File timestamp: Thu Jul 21 03:00:00 2016, Internal temp: 49.8199462890625
1469070001.01, 0.00179270736407489, 0.0248465910553932, -0.0173920430243015, 33899, 32927, 23176, 138.105224609375
1469070002.01, 0.00129133102018386, 0.0242538917809725, -0.0178488995879889, 33886, 32913, 23173, NaN
1469070003.01, 8.65658294060268e-05, 0.0245957300066948, -0.0186044406145811, 33892, 32915, 23165, NaN
1469070004.01, -0.00166885228827596, 0.025001285597682, -0.0177563410252333, 33905, 32934, 23164, NaN
1469070004.01, -0.00324356975033879, 0.025408249348402, -0.0189757198095322, 33884, 32923, 23170, NaN
1469070005.018, -0.00351322232745588, 0.0265294536948204, -0.0196372549980879, 33905, 32925, 23171, NaN
1469070006.018, -0.00306209502741694, 0.0269786827266216, -0.0191530790179968, 33893, 32923, 23161, NaN
1469070007.018, -0.00273909862153232, 0.0272296611219645, -0.0179904215037823, 33891, 32928, 23162, NaN
1469070008.018, -0.00215102592483163, 0.0270152781158686, -0.0177062097936869, 33884, 32916, 23173, NaN
1469070008.018, -0.0020690334495157, 0.0274861808866262, -0.0174085590988398, 33903, 32921, 23164, NaN
1469070009.024, -0.00171529105864465, 0.027346869930625, -0.0166178122162819, 33886, 32923, 23176, NaN
1469070010.024, -0.000321178726153448, 0.0269102733582258, -0.016296973451972, 33889, 32916, 23168, NaN
1469070011.024, 0.000490257167257369, 0.0268638432025909, -0.0158337596803904, 33906, 32922, 23170, NaN
1469070012.024, 0.00223526172339916, 0.0268770363181829, -0.0161868017166853, 33897, 32924, 23164, NaN
1469070013.024, 0.00449803611263633, 0.0273668188601732, -0.0171636193990707, 33904, 32931, 23162, NaN
1469070014.024, 0.00635773548856378, 0.0268209408968687, -0.0170906148850918, 33894, 32919, 23167, NaN
1469070015.024, 0.00789993908256292, 0.0267487075179815, -0.0172279421240091, 33895, 32912, 23169, NaN
1469070016.024, 0.00915162079036236, 0.0261960998177528, -0.0166704319417477, 33889, 32912, 23180, NaN
1469070017.024, 0.00869590975344181, 0.0267526973038912, -0.0165206845849752, 33897, 32923, 23160, NaN
1469070018.024, 0.00817557610571384, 0.026728916913271, -0.015008975751698, 33906, 32922, 23159, NaN
1469070019.024, 0.00727292522788048, 0.0267136078327894, -0.0149852633476257, 33896, 32916, 23162, NaN
1469070020.024, 0.00692268460988998, 0.0270650200545788, -0.0143312551081181, 33901, 32922, 23172, NaN
1469070021.024, 0.00616693450137973, 0.0275851599872112, -0.0142945135012269, 33900, 32918, 23164, NaN
1469070022.024, 0.00439994549378753, 0.0282335318624973, -0.0132992407307029, 33889, 32913, 23167, NaN
1469070023.024, 0.00234543485566974, 0.0284152384847403, -0.0134145673364401, 33896, 32918, 23159, NaN
1469070024.024, 0.000831088225822896, 0.0283569078892469, -0.0130071109160781, 33905, 32915, 23155, NaN
1469070025.024, -0.000192919178516604, 0.0285358782857656, -0.0124269006773829, 33908, 32915, 23158, NaN
1469070026.024, -0.00234248070046306, 0.0287284888327122, -0.0122294807806611, 33888, 32928, 23161, NaN
1469070027.024, -0.00596819678321481, 0.0277143958956003, -0.0115586603060365, 33903, 32914, 23164, NaN
1469070028.024, -0.0092876311391592, 0.0279331337660551, -0.0118344556540251, 33903, 32915, 23166, NaN
1469070029.032, -0.0115593709051609, 0.0277772787958384, -0.0114757241681218, 33882, 32915, 23165, NaN
1469070030.032, -0.0142773389816284, 0.0283461604267359, -0.0114858755841851, 33895, 32921, 23158, NaN
1469070031.032, -0.0157624501734972, 0.0281479880213737, -0.0113316886126995, 33887, 32912, 23181, NaN
1469070032.032, -0.0170991644263268, 0.0281506851315498, -0.0104087172076106, 33902, 32919, 23156, NaN
1469070032.032, -0.0176299214363098, 0.0283107347786427, -0.0110752498731017, 33897, 32918, 23158, NaN
1469070033.04, -0.0174682065844536, 0.0281982943415642, -0.0119583355262876, 33890, 32912, 23172, NaN
1469070034.04, -0.0159546285867691, 0.0280941277742386, -0.0110007142648101, 33905, 32914, 23155, NaN
1469070035.04, -0.0136307999491692, 0.0273616928607225, -0.0100463144481182, 33901, 32910, 23156, NaN
1469070036.04, -0.011205667629838, 0.0274506006389856, -0.0100892195478082, 33889, 32926, 23175, NaN
1469070036.04, -0.0083301430568099, 0.0268077813088894, -0.0105140749365091, 33900, 32902, 23164, NaN
1469070037.046, -0.00689121847972274, 0.0270549133419991, -0.0109607148915529, 33895, 32910, 23168, NaN
1469070038.046, -0.00620816089212894, 0.0276413056999445, -0.0107580320909619, 33896, 32917, 23167, NaN
1469070039.046, -0.00615005334839225, 0.0280823744833469, -0.010163932107389, 33889, 32920, 23163, NaN
1469070040.046, -0.00577802257612348, 0.0279779247939587, -0.0106085864827037, 33892, 32907, 23160, NaN
1469070040.046, -0.00480881799012423, 0.027073560282588, -0.0114066274836659, 33895, 32919, 23166, NaN
1469070041.05, -0.00394677557051182, 0.0273708701133728, -0.0114769246429205, 33892, 32920, 23160, NaN
1469070042.05, -0.00219587609171867, 0.0276744719594717, -0.0115074003115296, 33894, 32917, 23163, NaN
1469070043.05, 6.7773180489894e-05, 0.0277967546135187, -0.0115895625203848, 33898, 32916, 23158, NaN
1469070044.05, 0.00125216576270759, 0.0284855309873819, -0.0116840992122889, 33904, 32920, 23161, NaN
1469070045.05, 0.00306039326824248, 0.0289865843951702, -0.0114633478224277, 33896, 32927, 23168, NaN
1469070046.05, 0.00443752016872168, 0.0300361104309559, -0.0107689537107944, 33890, 32922, 23172, NaN
1469070047.05, 0.00464093731716275, 0.0306316632777452, -0.0105395913124084, 33887, 32913, 23180, NaN
1469070048.05, 0.00518781412392855, 0.0318180061876774, -0.0113848568871617, 33890, 32918, 23153, NaN
1469070049.05, 0.00730309868231416, 0.0316363163292408, -0.010884721763432, 33900, 32919, 23159, NaN
1469070050.05, 0.00830189138650894, 0.0314230807125568, -0.0102556813508272, 33891, 32917, 23170, NaN
1469070051.05, 0.0101271532475948, 0.032080102711916, -0.0102812210097909, 33901, 32927, 23170, NaN
1469070052.05, 0.0133204897865653, 0.0315029621124268, -0.0101529210805893, 33904, 32917, 23158, NaN
1469070053.05, 0.0156522002071142, 0.0315466523170471, -0.0102685987949371, 33913, 32911, 23155, NaN
1469070054.05, 0.0180345736443996, 0.0314209647476673, -0.0104591911658645, 33892, 32910, 23169, NaN
1469070055.058, 0.0211806036531925, 0.031309612095356, -0.00969492923468351, 33902, 32916, 23163, 137.554946899414
1469070056.058, 0.0238117445260286, 0.0319339260458946, -0.0094602182507515, 33901, 32928, 23153, NaN
1469070057.058, 0.0257171839475632, 0.0313014909625053, -0.0086560882627964, 33901, 32913, 23167, NaN
1469070058.058, 0.0267473794519901, 0.0308451522141695, -0.00855614710599184, 33897, 32913, 23165, NaN
1469070058.058, 0.0272182952612638, 0.0310135241597891, -0.00897475890815258, 33889, 32910, 23169, NaN
1469070059.066, 0.0261020585894585, 0.0315042920410633, -0.00867757853120565, 33898, 32930, 23160, NaN
1469070060.066, 0.0244702845811844, 0.0310587789863348, -0.00905587617307901, 33893, 32914, 23154, NaN
1469070061.066, 0.022454958409071, 0.0315813943743706, -0.00848741270601749, 33898, 32917, 23159, NaN
1469070062.066, 0.0209068525582552, 0.032241515815258, -0.00897108763456345, 33888, 32917, 23172, NaN
1469070063.066, 0.0183428470045328, 0.0318607836961746, -0.0085420198738575, 33888, 32928, 23174, NaN
1469070064.066, 0.0144159980118275, 0.0308197811245918, -0.00837342813611031, 33897, 32903, 23175, NaN
1469070065.066, 0.0105857625603676, 0.0318796746432781, -0.00805150810629129, 33898, 32914, 23164, NaN
1469070066.066, 0.0068527371622622, 0.0310916434973478, -0.00803688354790211, 33908, 32912, 23160, NaN
1469070067.066, 0.00402227928861976, 0.0302081909030676, -0.00784076098352671, 33893, 32914, 23170, NaN
1469070068.066, 0.000840084278024733, 0.0299412496387959, -0.00808020494878292, 33899, 32908, 23175, NaN
1469070069.066, -0.00259609520435333, 0.0303824413567781, -0.00832626782357693, 33904, 32919, 23166, NaN
1469070070.066, -0.00469244597479701, 0.0294529534876347, -0.00838541146367788, 33897, 32917, 23163, NaN
1469070071.066, -0.0069957678206265, 0.0294671077281237, -0.00819062348455191, 33899, 32924, 23164, NaN
1469070072.066, -0.00938421208411455, 0.0302539449185133, -0.00809711683541536, 33895, 32932, 23175, NaN
1469070073.066, -0.0110151637345552, 0.0295164566487074, -0.00786783546209335, 33893, 32915, 23171, NaN
1469070074.066, -0.0135312983766198, 0.0300439056009054, -0.00759786274284124, 33896, 32927, 23155, NaN
1469070075.066, -0.015641700476408, 0.0306240562349558, -0.00732734939083457, 33895, 32918, 23168, NaN
1469070076.066, -0.0167960599064827, 0.0298671796917915, -0.00645223073661327, 33899, 32932, 23173, NaN
1469070077.066, -0.0183465536683798, 0.0293414909392595, -0.00638261949643493, 33900, 32930, 23162, NaN
1469070078.066, -0.0202847812324762, 0.02973029948771, -0.00689256237819791, 33902, 32917, 23155, NaN
1469070079.066, -0.0214909389615059, 0.0290100481361151, -0.00725696934387088, 33900, 32910, 23159, NaN
1469070080.066, -0.0211671311408281, 0.029092762619257, -0.00801523216068745, 33885, 32928, 23159, NaN
1469070081.066, -0.0211312640458345, 0.0287700761109591, -0.00799122639000416, 33889, 32907, 23165, NaN
1469070082.074, -0.0197574775665998, 0.0283877067267895, -0.00846699438989162, 33900, 32920, 23157, NaN
1469070082.074, -0.0190617069602013, 0.0273277461528778, -0.00960533320903778, 33902, 32922, 23163, NaN
1469070083.082, -0.0190075282007456, 0.0269982777535915, -0.00932082533836365, 33903, 32914, 23170, NaN
1469070084.082, -0.0186216905713081, 0.0268679596483707, -0.00884716492146254, 33901, 32927, 23160, NaN
1469070085.082, -0.0186574216932058, 0.0264371056109667, -0.00892979837954044, 33892, 32918, 23158, NaN
1469070086.082, -0.0185689125210047, 0.0258608050644398, -0.00881029851734638, 33892, 32915, 23168, NaN
1469070086.082, -0.0187036190181971, 0.0253488589078188, -0.00777291227132082, 33900, 32924, 23149, NaN
1469070087.09, -0.0181863140314817, 0.0241323448717594, -0.00882142875343561, 33891, 32929, 23166, NaN
1469070088.09, -0.0170232411473989, 0.0243274345993996, -0.00885231047868729, 33902, 32919, 23152, NaN
1469070089.09, -0.0162759535014629, 0.0236223526299, -0.00929458532482386, 33896, 32916, 23156, NaN
1469070090.09, -0.0137982722371817, 0.0245415717363358, -0.00997401028871536, 33891, 32922, 23181, NaN
1469070090.09, -0.0119014848023653, 0.0246698781847954, -0.0106129134073853, 33894, 32921, 23173, NaN
1469070091.096, -0.0108121130615473, 0.0247296877205372, -0.0106646744534373, 33897, 32916, 23168, NaN
1469070092.096, -0.0100019369274378, 0.0258604492992163, -0.0115622179582715, 33889, 32922, 23185, NaN
1469070093.096, -0.00978220347315073, 0.0263122916221619, -0.0111835449934006, 33888, 32923, 23173, NaN
1469070094.096, -0.00929461885243654, 0.0253762397915125, -0.0110968481749296, 33902, 32917, 23153, NaN
1469070094.096, -0.00802966672927141, 0.025318956002593, -0.0113750696182251, 33882, 32910, 23176, NaN
1469070095.1, -0.00617268402129412, 0.0244751665741205, -0.0118139795958996, 33897, 32934, 23167, NaN
1469070096.1, -0.00346624455414712, 0.0244158618152142, -0.0116498973220587, 33886, 32916, 23164, NaN
1469070097.1, -0.000403707788791507, 0.0242971107363701, -0.0112548302859068, 33893, 32923, 23164, NaN
1469070098.1, 0.00210938393138349, 0.0252644196152687, -0.0124978413805366, 33894, 32928, 23168, NaN
1469070098.1, 0.00473978649824858, 0.0245917327702045, -0.0133386570960283, 33898, 32915, 23170, NaN
1469070099.102, 0.00680274423211813, 0.0247708335518837, -0.0127497427165508, 33888, 32906, 23171, NaN
1469070100.102, 0.00898775272071362, 0.0243979450315237, -0.012304812669754, 33895, 32914, 23176, NaN
1469070101.082, 0.0114168263971806, 0.0249567050486803, -0.012299201451242, 33906, 32907, 23162, NaN
1469070102.082, 0.0138254882767797, 0.0249612722545862, -0.0127697065472603, 33895, 32907, 23166, NaN
1469070103.082, 0.0161332748830318, 0.0249016899615526, -0.0119402045384049, 33889, 32929, 23164, NaN
1469070104.082, 0.0176755003631115, 0.0239415690302849, -0.0120214885100722, 33894, 32920, 23176, NaN
1469070105.082, 0.0197402201592922, 0.0235248953104019, -0.0119595183059573, 33899, 32919, 23168, NaN
1469070106.092, 0.0215392429381609, 0.0228032004088163, -0.011722145602107, 33890, 32918, 23170, NaN
1469070106.092, 0.0227993577718735, 0.0228104814887047, -0.0115886181592941, 33898, 32916, 23166, NaN
1469070107.1, 0.0230766460299492, 0.0226150564849377, -0.0112356590107083, 33889, 32904, 23161, NaN
1469070108.1, 0.0231342855840921, 0.022228853777051, -0.0106543190777302, 33901, 32921, 23158, 137.990966796875
1469070109.1, 0.0236055664718151, 0.0219493098556995, -0.0108399698510766, 33908, 32916, 23158, NaN
1469070110.1, 0.0233736298978329, 0.021808722987771, -0.0118315406143665, 33897, 32923, 23157, NaN
1469070110.1, 0.0229445155709982, 0.0225933529436588, -0.0119657376781106, 33892, 32929, 23172, NaN
1469070111.108, 0.022076727822423, 0.023216849192977, -0.0122759994119406, 33892, 32926, 23176, NaN
1469070112.108, 0.0215052086859941, 0.0234503671526909, -0.0117401219904423, 33908, 32905, 23162, NaN
1469070113.108, 0.0216785352677107, 0.0235454458743334, -0.0122707355767488, 33886, 32920, 23177, NaN
1469070114.108, 0.0212755035609007, 0.0230021364986897, -0.0125882104039192, 33904, 32915, 23168, NaN
1469070115.108, 0.020149378105998, 0.0232880618423223, -0.0120013225823641, 33894, 32918, 23163, NaN
1469070116.108, 0.0180545803159475, 0.0232575759291649, -0.0119857294484973, 33916, 32915, 23150, NaN
1469070117.108, 0.0150713650509715, 0.0227101724594831, -0.0117841493338346, 33889, 32931, 23166, NaN
1469070118.108, 0.0126206977292895, 0.0228607710450888, -0.0133076440542936, 33895, 32922, 23161, NaN
1469070119.108, 0.00921191833913326, 0.0232377294450998, -0.0138764940202236, 33904, 32912, 23157, NaN
1469070120.108, 0.00493039889261127, 0.0234493650496006, -0.0129086198285222, 33889, 32923, 23171, NaN
1469070121.108, 4.75275510325446e-06, 0.0236117225140333, -0.0136447791010141, 33888, 32917, 23165, NaN
1469070122.108, -0.00477088522166014, 0.0230435896664858, -0.0136194797232747, 33894, 32922, 23166, NaN
1469070123.108, -0.00759383849799633, 0.0225023347884417, -0.0137245310470462, 33896, 32914, 23156, NaN
1469070124.108, -0.0101735191419721, 0.0219312515109777, -0.0129385320469737, 33881, 32917, 23169, NaN
1469070125.108, -0.0119718890637159, 0.02208904735744, -0.0139976805076003, 33891, 32928, 23168, NaN
1469070126.108, -0.0139116998761892, 0.0223856139928102, -0.0147013459354639, 33904, 32916, 23161, NaN
1469070127.108, -0.0146514503285289, 0.0221687089651823, -0.0144759500399232, 33897, 32909, 23154, NaN
1469070128.108, -0.0144135365262628, 0.0218150299042463, -0.0145110543817282, 33891, 32906, 23157, NaN
1469070129.108, -0.0139741096645594, 0.0202915873378515, -0.012975056655705, 33893, 32926, 23170, NaN
1469070130.108, -0.0140214050188661, 0.0197051968425512, -0.0137980207800865, 33903, 32912, 23163, NaN
1469070131.108, -0.0150803560391068, 0.0192354414612055, -0.0145609620958567, 33899, 32918, 23164, NaN
1469070132.108, -0.016274631023407, 0.0184566825628281, -0.0145666478201747, 33907, 32914, 23162, NaN
1469070133.118, -0.0165330916643143, 0.0183657128363848, -0.0140668442472816, 33881, 32927, 23172, NaN
1469070134.118, -0.0166787821799517, 0.0172294154763222, -0.0138447284698486, 33898, 32916, 23163, NaN
1469070134.118, -0.0164766237139702, 0.0175968464463949, -0.0139089962467551, 33884, 32913, 23168, NaN
1469070135.126, -0.0172372777014971, 0.0173508450388908, -0.0145886456593871, 33902, 32920, 23159, NaN
1469070136.126, -0.0176240336149931, 0.0172391198575497, -0.0140215372666717, 33912, 32915, 23150, NaN
1469070137.126, -0.0176634881645441, 0.0176332425326109, -0.0126530192792416, 33905, 32925, 23158, NaN
1469070138.126, -0.0178254023194313, 0.0173131264746189, -0.0121581656858325, 33893, 32919, 23170, NaN
1469070138.13, -0.0167859848588705, 0.0174798872321844, -0.0122492546215653, 33907, 32912, 23166, NaN
1469070139.134, -0.0145996091887355, 0.0166952796280384, -0.0122518232092261, 33892, 32927, 23167, NaN
1469070140.134, -0.0128900418058038, 0.0169566292315722, -0.0118417413905263, 33890, 32919, 23177, NaN
1469070141.134, -0.0119232842698693, 0.0168497692793608, -0.0117182293906808, 33906, 32930, 23159, NaN
1469070142.134, -0.0114656547084451, 0.0171712804585695, -0.0127252852544188, 33895, 32918, 23168, NaN
1469070142.134, -0.0116111487150192, 0.0170721467584372, -0.0134277753531933, 33905, 32918, 23158, NaN
1469070143.14, -0.011144831776619, 0.017843609675765, -0.0125238643959165, 33897, 32922, 23154, NaN
1469070144.14, -0.00964968651533127, 0.0183398686349392, -0.0124230459332466, 33893, 32923, 23176, NaN
1469070145.14, -0.00748057710006833, 0.0184674579650164, -0.0130189461633563, 33883, 32913, 23170, NaN
1469070146.14, -0.00461982563138008, 0.018445510417223, -0.0138633288443089, 33893, 32929, 23165, NaN
1469070146.14, -0.00218211836181581, 0.0181575454771519, -0.0140798538923264, 33897, 32915, 23158, NaN
1469070147.144, 0.00175672303885221, 0.0186411663889885, -0.013646992854774, 33887, 32918, 23164, NaN
1469070148.144, 0.00659272633492947, 0.0177598781883717, -0.012960790656507, 33902, 32920, 23169, NaN
1469070149.144, 0.0114092193543911, 0.0183151494711637, -0.0133761446923018, 33900, 32929, 23173, NaN
1469070150.144, 0.0152555797249079, 0.0180191732943058, -0.0140098612755537, 33903, 32926, 23160, NaN
1469070151.124, 0.0195277612656355, 0.0186089854687452, -0.0144543694332242, 33899, 32932, 23155, NaN
1469070152.124, 0.0235357508063316, 0.0188447199761868, -0.0143457362428308, 33886, 32917, 23161, NaN
1469070153.124, 0.0256677027791739, 0.0192662179470062, -0.01445815525949, 33898, 32907, 23170, NaN
1469070154.124, 0.0272821839898825, 0.0187799390405416, -0.0141464481130242, 33898, 32918, 23173, NaN
1469070155.124, 0.0270848069339991, 0.0181954950094223, -0.0137564186006784, 33887, 32922, 23174, NaN
1469070156.124, 0.0270478799939156, 0.0187195409089327, -0.0137733975425363, 33889, 32925, 23173, NaN
1469070157.124, 0.0259834323078394, 0.0185956470668316, -0.0140351457521319, 33887, 32930, 23179, NaN
1469070158.132, 0.023915346711874, 0.018176419660449, -0.0139816589653492, 33909, 32923, 23157, NaN
1469070159.132, 0.0202656015753746, 0.0182179063558578, -0.0143484929576516, 33889, 32934, 23147, NaN
1469070159.132, 0.0153513997793198, 0.0186536815017462, -0.0123246274888515, 33892, 32916, 23164, NaN
1469070160.14, 0.0104831168428063, 0.0178943481296301, -0.0134261883795261, 33885, 32916, 23162, NaN
1469070161.14, 0.00582175236195326, 0.0177223719656467, -0.0130672566592693, 33895, 32931, 23179, NaN
1469070162.14, 0.0010136878117919, 0.0184994712471962, -0.0144858341664076, 33899, 32921, 23158, 138.276428222656
1469070163.14, -0.00328157795593143, 0.0191287752240896, -0.0149156078696251, 33897, 32921, 23157, NaN
1469070163.14, -0.00668899156153202, 0.0200982671231031, -0.015288308262825, 33899, 32920, 23168, NaN
1469070164.152, -0.010419269092381, 0.0196352787315845, -0.0152942314743996, 33897, 32917, 23167, NaN
1469070165.146, -0.0138630997389555, 0.0187733080238104, -0.0154824340716004, 33911, 32924, 23158, NaN
1469070166.146, -0.0157531797885895, 0.0184150990098715, -0.0149486279115081, 33897, 32913, 23168, NaN
1469070167.146, -0.0164259430021048, 0.0191977005451918, -0.0140564767643809, 33887, 32924, 23179, NaN
1469070168.146, -0.015747431665659, 0.0183696690946817, -0.0149294333532453, 33894, 32917, 23166, NaN
1469070169.146, -0.0136747173964977, 0.0189756397157907, -0.0144167635589838, 33902, 32919, 23160, NaN
1469070170.146, -0.0112774260342121, 0.0195179712027311, -0.0146779818460345, 33901, 32917, 23158, NaN
1469070171.146, -0.00841629970818758, 0.0197632890194654, -0.0159541927278042, 33890, 32911, 23163, NaN
1469070172.146, -0.00650737574324012, 0.0186032019555569, -0.016204085201025, 33899, 32925, 23161, NaN
1469070173.146, -0.00591020938009024, 0.0186575036495924, -0.0164449922740459, 33902, 32921, 23159, NaN
1469070174.146, -0.00487837009131908, 0.0189645811915398, -0.0164020918309689, 33893, 32919, 23165, NaN
1469070175.146, -0.00329237920232117, 0.0198240242898464, -0.0166009031236172, 33897, 32910, 23158, NaN
1469070176.146, -0.00113506009802222, 0.0199550446122885, -0.0171144604682922, 33906, 32924, 23157, NaN
1469070177.146, -7.28446466382593e-05, 0.020625239238143, -0.0179116148501635, 33899, 32926, 23166, NaN
1469070178.146, 0.000729053805116564, 0.0193317774683237, -0.0183847136795521, 33905, 32924, 23163, NaN
1469070179.146, 0.00805734749883413, 0.0196284595876932, -0.018790140748024, 33896, 32917, 23164, NaN
1469070180.146, 0.021427096799016, 0.0201230142265558, -0.0184021238237619, 33895, 32924, 23158, NaN
1469070181.146, 0.0380621738731861, 0.0205828137695789, -0.0192373860627413, 33897, 32916, 23159, NaN
1469070182.146, 0.0590824000537395, 0.0210836827754974, -0.0199588891118765, 33890, 32915, 23167, NaN
1469070183.146, 0.0824072659015656, 0.0203136280179024, -0.0205826703459024, 33894, 32931, 23173, NaN
1469070184.146, 0.106418788433075, 0.0198693908751011, -0.0201974380761385, 33900, 32915, 23164, NaN
1469070185.156, 0.130612999200821, 0.0200890973210335, -0.0199782848358154, 33893, 32920, 23175, NaN
1469070186.156, 0.153197005391121, 0.020349370315671, -0.0203854367136955, 33888, 32928, 23168, NaN
1469070187.156, 0.173851653933525, 0.0197207275778055, -0.0192065685987473, 33886, 32931, 23168, NaN
1469070187.156, 0.191819489002228, 0.0208874475210905, -0.0190410315990448, 33893, 32931, 23177, NaN
1469070188.164, 0.20631630718708, 0.0206872932612896, -0.0205374862998724, 33891, 32934, 23172, NaN
1469070189.164, 0.218348607420921, 0.0219452101737261, -0.0202340893447399, 33895, 32925, 23170, NaN
1469070190.164, 0.228352203965187, 0.0216916240751743, -0.0201788619160652, 33889, 32921, 23178, NaN
1469070191.164, 0.23489473760128, 0.0212336275726557, -0.0195715334266424, 33884, 32919, 23169, NaN
1469070191.164, 0.236465647816658, 0.0207503773272038, -0.0189928468316793, 33888, 32912, 23168, NaN
1469070192.17, 0.235213190317154, 0.0198806431144476, -0.0197251997888088, 33887, 32911, 23157, NaN
1469070193.17, 0.231756493449211, 0.0196556653827429, -0.01931456848979, 33907, 32917, 23153, NaN
1469070194.17, 0.225730314850807, 0.0194345936179161, -0.0194334220141172, 33903, 32930, 23160, NaN
1469070195.17, 0.215832486748695, 0.0197427496314049, -0.0193823631852865, 33899, 32906, 23153, NaN
1469070195.17, 0.204793214797974, 0.0190686620771885, -0.0191110894083977, 33890, 32908, 23163, NaN
1469070196.174, 0.191663712263107, 0.0185230020433664, -0.0201378613710403, 33889, 32912, 23166, NaN
1469070197.174, 0.177773654460907, 0.0191106740385294, -0.0194814708083868, 33893, 32908, 23158, NaN
1469070198.174, 0.16269014775753, 0.0193157605826855, -0.019467132166028, 33901, 32918, 23166, NaN
1469070199.174, 0.147496491670609, 0.01994913443923, -0.0188693311065435, 33895, 32916, 23174, NaN
1469070199.174, 0.133108466863632, 0.0197755992412567, -0.0184531025588512, 33893, 32926, 23175, NaN
1469070200.178, 0.118730239570141, 0.0195427648723125, -0.0181475803256035, 33902, 32924, 23163, NaN
1469070201.178, 0.10503201186657, 0.0202216915786266, -0.0175742730498314, 33893, 32922, 23161, NaN
1469070202.178, 0.0923740640282631, 0.0214304756373167, -0.0178991388529539, 33902, 32923, 23171, NaN
1469070203.178, 0.0800540894269943, 0.020668325945735, -0.01780048571527, 33905, 32915, 23172, NaN
1469070204.138, 0.0686423406004906, 0.0206847507506609, -0.0175407938659191, 33910, 32930, 23163, NaN
1469070205.138, 0.0582922734320164, 0.0216513741761446, -0.0172771010547876, 33899, 32918, 23165, NaN
1469070206.138, 0.0488489717245102, 0.0214713588356972, -0.0169713348150253, 33900, 32931, 23161, NaN
1469070207.138, 0.040384192019701, 0.0214898250997066, -0.0166032705456018, 33894, 32921, 23159, NaN
1469070208.138, 0.0322495847940445, 0.0210987087339163, -0.0163866635411978, 33903, 32919, 23172, NaN
1469070209.138, 0.0245666485279799, 0.0209070723503828, -0.0163550470024347, 33894, 32915, 23168, NaN
1469070210.148, 0.0186075624078512, 0.0209304206073284, -0.0165773257613182, 33894, 32923, 23168, NaN